DateTimeUTC,F1_A11,F1_S11,BsB_S11,BsG_S11,BsR_S11,BbsB_S11,BbsG_S11,BbsR_S11,BaB_A11,BaG_A11,BaR_A11,Tu_S11,T_S11,Uu_S11,U_S11,P_S11,T1_A11
2021-11-20T14:00:00Z,00000200,21000000,,,,,,,-000.10,0000.21,0000.16,18.2,25.5,,00.0,0640.2,30.7
2021-11-20T14:01:00Z,00000200,21000000,,,,,,,0000.29,0000.27,0000.33,18.2,25.5,,00.0,0640.2,30.7
2021-11-20T14:02:00Z,00000200,21000000,,,,,,,0000.22,0000.29,0000.32,18.1,25.4,,00.0,0640.2,30.7
2021-11-20T14:03:00Z,00000200,61000000,,,,,,,0000.57,-000.12,0000.06,18.1,25.4,,00.0,0640.1,30.7
2021-11-20T14:04:00Z,00000200,41000000,-000.16,-000.35,-000.16,0000.24,0000.01,-000.38,0000.12,0000.62,0000.15,18.2,25.1,,00.0,0640.9,30.8
2021-11-20T14:05:00Z,00000200,01000000,0000.14,0000.16,0000.16,-000.13,-000.06,0000.22,-000.02,0000.26,0000.34,18.3,25.1,,00.0,0640.9,30.8
2021-11-20T14:06:00Z,00000200,01000000,0000.94,-000.30,0000.21,0000.16,-000.10,0000.40,0000.25,0000.16,0000.36,18.3,25.1,,00.0,0640.9,30.8
2021-11-20T14:07:00Z,00000200,01000000,0000.40,-000.26,-000.16,0000.01,0000.06,-000.18,0000.29,-000.00,-000.25,18.3,25.0,,00.0,0640.9,30.8
2021-11-20T14:08:00Z,00000200,01000000,0001.23,-000.03,-000.13,0000.38,0000.13,-000.27,0000.01,-000.11,0000.14,18.4,25.0,,00.0,0640.9,30.8
2021-11-20T14:09:00Z,00000200,01000000,0000.90,0000.01,0000.10,0000.41,-000.23,0000.28,-000.10,0000.03,-000.05,18.4,25.0,,00.0,0641.0,30.8
2021-11-20T14:10:00Z,00000200,01000000,0000.55,0000.12,0000.03,0000.41,-000.13,-000.16,0000.09,0000.10,0000.24,18.5,25.1,,00.0,0641.0,30.8
2021-11-20T14:11:00Z,00000200,01000000,0000.19,-000.04,-000.03,-000.13,0000.02,-000.06,-000.27,-000.09,-000.12,18.5,25.1,,00.0,0641.0,30.8
2021-11-20T14:12:00Z,00000200,01000000,0000.85,-000.27,-000.15,0000.37,-000.03,0000.31,-000.15,0000.05,-000.15,18.5,25.1,,00.0,0641.0,30.8
2021-11-20T14:13:00Z,00000200,01000000,0000.90,0000.15,-000.13,0000.29,-000.10,0000.04,0000.36,0000.34,-000.30,18.6,25.1,,00.0,0641.0,30.8
2021-11-20T14:14:00Z,00000200,01000000,0000.32,-000.19,0000.27,0000.10,-000.07,0000.26,-000.04,-000.23,0000.10,18.6,25.1,,00.0,0641.0,30.8
2021-11-20T14:15:00Z,00000200,01000000,-000.79,-000.17,-000.06,0000.09,-000.22,0000.03,0000.10,0000.01,0000.05,18.6,25.1,,00.0,0641.0,30.8
2021-11-20T14:16:00Z,00000200,01000000,0000.43,0000.22,-000.14,-000.17,0000.03,0000.20,-000.01,0000.08,0000.19,18.6,25.1,,00.0,0641.0,30.8
2021-11-20T14:17:00Z,00000200,01000000,0000.21,0000.29,0000.12,-000.34,-000.19,0000.12,0000.21,0000.26,0000.02,18.7,25.1,,00.0,0641.0,30.8
2021-11-20T14:18:00Z,00000200,01000000,-000.07,0000.21,0000.33,0000.03,0000.10,-000.04,-000.25,-000.38,-000.14,18.7,25.1,,00.0,0641.0,30.8
2021-11-20T14:19:00Z,00000200,01000000,0000.19,-000.30,-000.20,-000.06,-000.12,-000.29,-000.04,0000.14,-000.01,18.7,25.1,,00.0,0641.1,30.8
2021-11-20T14:20:00Z,00000200,01000000,0000.43,-000.16,0000.25,-000.10,0000.06,-000.15,0000.25,0000.01,-000.08,18.8,25.1,,00.0,0641.1,30.8
2021-11-20T14:21:00Z,00000200,01000000,0000.50,-000.08,-000.28,0000.67,-000.08,-000.01,0000.09,-000.20,0000.11,18.8,25.1,,00.0,0641.1,30.8
2021-11-20T14:22:00Z,00000200,01000000,0000.56,-000.01,0000.25,0000.19,-000.12,0000.16,-000.16,-000.05,0000.04,18.8,25.2,,00.0,0641.1,30.8
2021-11-20T14:23:00Z,00000200,01000000,-000.03,0000.31,0000.08,0000.31,0000.23,0000.23,0000.13,0000.08,-000.13,18.8,25.2,,00.0,0641.1,30.8
2021-11-20T14:24:00Z,00000200,01000000,0000.01,0000.09,0000.21,0000.59,-000.18,0000.19,0000.06,0000.30,-000.05,18.9,25.2,,00.0,0641.1,30.8
2021-11-20T14:25:00Z,00000200,01000000,0000.37,0000.14,0000.11,0000.20,0000.13,0000.11,-000.01,-000.13,-000.10,18.9,25.2,,00.0,0641.1,30.8
2021-11-20T14:26:00Z,00000200,01000000,0000.57,-000.09,0000.18,0000.45,0000.27,-000.36,-000.10,-000.34,-000.02,18.9,25.2,,00.0,0641.1,30.9
2021-11-20T14:27:00Z,00000200,01000000,0000.03,-000.00,0000.13,-000.17,0000.08,0000.09,0000.00,0000.61,0000.28,18.9,25.2,,00.0,0641.1,30.8
2021-11-20T14:28:00Z,00000200,01000000,0000.03,0000.02,-000.05,0000.23,-000.02,0000.04,0000.09,-000.34,-000.24,19.0,25.3,,00.0,0641.1,30.9
2021-11-20T14:29:00Z,00000200,01000000,0000.87,0000.20,-000.01,0000.44,-000.12,0000.04,-000.03,-000.06,0000.10,19.0,25.3,,00.0,0641.1,30.9
2021-11-20T14:30:00Z,00000200,01000000,-000.34,-000.15,-000.04,0000.35,0000.12,-000.07,-000.07,-000.16,-000.17,18.9,25.3,,00.0,0641.0,30.9
2021-11-20T14:31:00Z,00000200,01000000,0000.49,0000.21,-000.01,-000.26,-000.05,0000.01,0000.09,0000.09,0000.06,18.9,25.3,,00.0,0641.1,30.8
2021-11-20T14:32:00Z,00000200,01000000,-000.58,0000.31,0000.11,-000.42,-000.16,0000.03,-000.08,0000.43,0000.10,18.9,25.2,,00.0,0641.1,30.8
2021-11-20T14:33:00Z,00000200,01000000,-000.23,-000.10,-000.05,0000.45,-000.08,0000.12,0000.40,-000.02,0000.41,18.9,25.2,,00.0,0641.1,30.8
2021-11-20T14:34:00Z,00000200,01000000,0000.62,0000.20,-000.10,0000.54,-000.15,0000.25,-000.00,0000.16,-000.23,18.8,25.2,,00.0,0641.1,30.8
2021-11-20T14:35:00Z,00000200,01000000,0000.07,-000.05,0000.13,0000.46,0000.08,-000.21,-000.05,-000.10,0000.08,18.9,25.2,,00.0,0641.1,30.8
2021-11-20T14:36:00Z,00000200,01000000,0000.73,0000.07,0000.10,0000.11,-000.14,0000.06,-000.07,-000.18,-000.03,18.9,25.2,,00.0,0641.1,30.8
2021-11-20T14:37:00Z,00000200,01000000,0000.46,-000.02,-000.13,-000.09,-000.33,0000.03,0000.04,-000.10,-000.17,18.9,25.2,,00.0,0641.1,30.8
2021-11-20T14:38:00Z,00000200,01000000,-000.04,-000.01,0000.41,0000.40,0000.12,0000.31,0000.08,0000.28,0000.11,18.9,25.2,,00.0,0641.1,30.8
2021-11-20T14:39:00Z,00000200,01000000,0000.07,-000.11,0000.37,-000.02,-000.04,0000.34,-000.00,0000.05,-000.30,18.8,25.2,,00.0,0641.1,30.8
2021-11-20T14:40:00Z,00000200,01000000,0000.56,0000.11,0000.19,0000.41,-000.03,0000.03,0000.14,0000.07,0000.28,18.7,25.2,,00.0,0641.1,30.8
2021-11-20T14:41:00Z,00000200,01000000,0000.81,-000.10,0000.08,0000.46,-000.09,0000.13,-000.21,-000.19,0000.16,18.6,25.1,,00.0,0641.0,30.7
2021-11-20T14:42:00Z,00000200,01000000,0000.40,0000.32,0000.13,0000.67,-000.04,0000.45,0000.21,0000.22,-000.02,18.5,25.1,,00.0,0641.0,30.7
2021-11-20T14:43:00Z,00000200,01000000,0000.80,0000.09,0000.14,-000.18,0000.01,-000.05,0000.24,-000.28,-000.18,18.4,25.0,,00.0,0641.0,30.7
2021-11-20T14:44:00Z,00000200,01000000,0000.34,0000.24,-000.12,-000.03,-000.14,-000.02,0000.12,-000.01,0000.14,18.3,25.0,,00.0,0641.0,30.7
2021-11-20T14:45:00Z,00000200,01000000,-000.40,0000.08,0000.29,0000.13,-000.06,0000.15,0000.07,0000.47,0000.11,18.2,24.9,,00.0,0641.0,30.7
2021-11-20T14:46:00Z,00000200,01000000,0000.15,-000.23,-000.09,0000.25,-000.03,-000.11,-000.21,0000.23,0000.20,18.1,24.8,,00.0,0641.0,30.7
2021-11-20T14:47:00Z,00000200,01000000,0000.98,-000.20,-000.07,0000.58,-000.33,0000.23,0000.54,0000.05,0000.19,18.0,24.8,,00.0,0641.0,30.7
2021-11-20T14:48:00Z,00000200,01000000,0000.86,0000.09,0000.14,0000.66,-000.26,0000.13,0000.16,0000.41,0000.20,18.0,24.7,,00.0,0641.0,30.7
2021-11-20T14:49:00Z,00000200,01000000,0000.62,0000.13,0000.18,-000.29,-000.13,0000.29,0000.26,0000.23,0000.23,18.0,24.7,,00.0,0641.0,30.7
2021-11-20T14:50:00Z,00000200,01000000,0000.28,-000.01,0000.43,0000.26,-000.28,-000.06,0000.04,0000.32,0000.08,18.1,24.7,,00.0,0641.0,30.7
2021-11-20T14:51:00Z,00000200,01000000,0000.63,0000.04,0000.06,0000.53,-000.12,0000.10,0000.11,-000.12,0000.00,18.1,24.7,,00.0,0641.0,30.7
2021-11-20T14:52:00Z,00000200,01000000,0000.35,0000.20,0000.24,0000.38,0000.21,0000.18,0000.10,0000.36,0000.19,18.2,24.7,,00.0,0641.0,30.7
2021-11-20T14:53:00Z,00000200,01000000,-000.20,-000.03,-000.13,0000.52,0000.21,-000.00,0000.13,0000.02,0000.42,18.2,24.7,,00.0,0641.0,30.7
2021-11-20T14:54:00Z,00000200,01000000,0000.12,-000.09,0000.31,0000.27,-000.14,0000.65,0000.52,0000.08,-000.24,18.2,24.7,,00.0,0641.1,30.8
2021-11-20T14:55:00Z,00000200,01000000,-000.08,0000.18,0000.23,0000.13,0000.15,0000.37,-000.07,0000.42,0000.36,18.3,24.7,,00.0,0641.1,30.8
2021-11-20T14:56:00Z,00000200,01000000,0000.17,0000.17,0000.13,-000.06,0000.17,0000.10,0000.19,-000.36,-000.08,18.3,24.8,,00.0,0641.1,30.8
2021-11-20T14:57:00Z,00000200,41000000,,,,,,,0000.08,-000.02,0000.14,18.4,24.8,,00.0,0641.2,30.8
2021-11-20T14:58:00Z,00000200,61000000,,,,,,,-000.27,-000.06,-000.17,18.1,24.9,,00.0,0640.2,30.8
2021-11-20T14:59:00Z,00000200,21000000,,,,,,,0000.18,0000.05,-000.16,18.1,25.0,,00.0,0640.2,30.8
